Location: Edmonton
(53.5461°N, 113.4938°W)
Time: 14:36:33
(UTC-06:00)

ISS - Visible Passes

Search period start: 17 May 2021 00:00
Search period end: 27 May 2021 00:00
Orbit: 417 x 422 km, 51.6° (Epoch: 17 May)

Date Brightness Start Highest point End Pass type
(mag) Time Alt. Az. Time Alt. Az. Time Alt. Az.
17 May -3.8 00:13:12 10° WSW 00:16:32 59° S 00:19:52 10° E visible
17 May -3.7 01:49:53 10° W 01:53:11 53° SSW 01:54:23 33° SE visible
17 May -1.4 03:26:54 10° W 03:33:42 - SSE 03:27:11 11° W visible
17 May -3.6 23:25:50 10° WSW 23:29:08 52° SSE 23:32:26 10° E visible
18 May -3.8 01:02:26 10° W 01:05:46 60° S 01:07:21 28° ESE visible
18 May -1.8 02:39:18 10° W 02:40:16 16° WSW 02:40:16 16° WSW visible
18 May -3.4 22:38:31 10° SW 22:41:44 43° SSE 22:44:58 10° E visible
19 May -3.8 00:15:01 10° W 00:18:21 64° S 00:21:03 15° ESE visible
19 May -2.7 01:51:47 10° W 01:53:58 29° WSW 01:53:58 29° WSW visible
19 May -3.8 23:27:35 10° WSW 23:30:55 63° S 23:34:16 10° E visible
20 May -3.5 01:04:18 10° W 01:07:33 45° SSW 01:07:49 43° S visible
20 May -3.7 22:40:10 10° WSW 22:43:29 59° S 22:46:49 10° E visible
21 May -3.7 00:16:50 10° W 00:20:08 53° SSW 00:21:45 26° SE visible
21 May -1.6 01:53:52 10° W 01:54:41 14° WSW 01:54:41 14° WSW visible
21 May -3.7 23:29:23 10° W 23:32:42 60° S 23:35:43 12° ESE visible
22 May -2.6 01:06:15 10° W 01:08:39 27° SW 01:08:39 27° SW visible
22 May -3.7 22:41:55 10° W 22:45:17 63° S 22:48:37 10° E visible
23 May -3.1 00:18:42 10° W 00:21:50 36° SSW 00:22:38 31° S visible
23 May -3.4 23:31:13 10° W 23:34:26 45° SSW 23:36:39 18° SE visible
24 May -1.5 01:08:35 10° WSW 01:09:35 14° WSW 01:09:35 14° WSW visible
24 May -3.5 22:43:43 10° W 22:47:02 53° SSW 22:50:19 10° ESE visible
25 May -2.3 00:20:46 10° W 00:23:24 21° SSW 00:23:38 21° SSW visible
25 May -2.6 23:33:07 10° W 23:36:04 28° SSW 23:37:42 19° SSE visible
26 May -2.9 22:45:35 10° W 22:48:42 36° SSW 22:51:48 10° SE visible
